Year,Month,Day,Hour,Minute,Value (Times are PST for temperature in C)
2016,06,25,00,00,14.80
2016,06,25,00,01,14.80
2016,06,25,00,02,14.80
2016,06,25,00,03,14.80
2016,06,25,00,04,14.80
2016,06,25,00,05,14.80
2016,06,25,00,06,14.80
2016,06,25,00,07,14.80
2016,06,25,00,08,14.80
2016,06,25,00,09,14.80
2016,06,25,00,10,14.80
2016,06,25,00,11,14.80
2016,06,25,00,12,14.80
2016,06,25,00,13,14.80
2016,06,25,00,14,14.80
2016,06,25,00,15,14.80
2016,06,25,00,16,14.80
2016,06,25,00,17,14.80
2016,06,25,00,18,14.80
2016,06,25,00,19,14.80
2016,06,25,00,20,14.80
2016,06,25,00,21,14.80
2016,06,25,00,22,14.80
2016,06,25,00,23,14.80
2016,06,25,00,24,14.80
2016,06,25,00,25,14.80
2016,06,25,00,26,14.80
2016,06,25,00,27,14.80
2016,06,25,00,28,14.80
2016,06,25,00,29,14.80
2016,06,25,00,30,14.80
2016,06,25,00,31,14.80
2016,06,25,00,32,14.80
2016,06,25,00,33,14.80
2016,06,25,00,34,14.80
2016,06,25,00,35,14.80
2016,06,25,00,36,14.70
2016,06,25,00,37,14.70
2016,06,25,00,38,14.70
2016,06,25,00,39,14.70
2016,06,25,00,40,14.60
2016,06,25,00,41,14.70
2016,06,25,00,42,14.70
2016,06,25,00,43,14.70
2016,06,25,00,44,14.70
2016,06,25,00,45,14.70
2016,06,25,00,46,14.70
2016,06,25,00,47,14.70
2016,06,25,00,48,14.70
2016,06,25,00,49,14.60
2016,06,25,00,50,14.60
2016,06,25,00,51,14.60
2016,06,25,00,52,14.60
2016,06,25,00,53,14.60
2016,06,25,00,54,14.60
2016,06,25,00,55,14.60
2016,06,25,00,56,14.60
2016,06,25,00,57,14.60
2016,06,25,00,58,14.60
2016,06,25,00,59,14.60
2016,06,25,01,00,14.60
2016,06,25,01,01,14.60
2016,06,25,01,02,14.60
2016,06,25,01,03,14.60
2016,06,25,01,04,14.60
2016,06,25,01,05,14.60
2016,06,25,01,06,14.60
2016,06,25,01,07,14.60
2016,06,25,01,08,14.60
2016,06,25,01,09,14.60
2016,06,25,01,10,14.60
2016,06,25,01,11,14.60
2016,06,25,01,12,14.60
2016,06,25,01,13,14.60
2016,06,25,01,14,14.60
2016,06,25,01,15,14.60
2016,06,25,01,16,14.60
2016,06,25,01,17,14.60
2016,06,25,01,18,14.60
2016,06,25,01,19,14.50
2016,06,25,01,20,14.50
2016,06,25,01,21,14.50
2016,06,25,01,22,14.50
2016,06,25,01,23,14.60
2016,06,25,01,24,14.50
2016,06,25,01,25,14.50
2016,06,25,01,26,14.50
2016,06,25,01,27,14.50
2016,06,25,01,28,14.50
2016,06,25,01,29,14.50
2016,06,25,01,30,14.50
2016,06,25,01,31,14.50
2016,06,25,01,32,14.50
2016,06,25,01,33,14.50
2016,06,25,01,34,14.50
2016,06,25,01,35,14.50
2016,06,25,01,36,14.50
2016,06,25,01,37,14.50
2016,06,25,01,38,14.50
2016,06,25,12,07,16.60
2016,06,25,12,08,16.60
2016,06,25,12,09,16.70
2016,06,25,12,10,16.70
2016,06,25,12,11,16.80
2016,06,25,12,12,16.90
2016,06,25,12,13,17.00
2016,06,25,12,14,17.10
2016,06,25,12,15,17.20
2016,06,25,12,16,17.20
2016,06,25,12,17,17.20
2016,06,25,12,18,17.20
2016,06,25,12,19,17.20
2016,06,25,12,20,17.20
2016,06,25,12,21,17.20
2016,06,25,12,22,17.20
2016,06,25,12,23,17.20
2016,06,25,12,24,17.20
2016,06,25,12,25,17.20
2016,06,25,12,26,17.20
2016,06,25,12,27,17.20
2016,06,25,12,28,17.10
2016,06,25,12,29,17.00
2016,06,25,12,30,17.00
2016,06,25,12,31,17.10
2016,06,25,12,32,17.00
2016,06,25,12,33,17.00
2016,06,25,12,34,16.90
2016,06,25,12,35,16.80
2016,06,25,12,36,16.80
2016,06,25,12,37,16.90
2016,06,25,12,38,17.10
2016,06,25,12,39,17.10
2016,06,25,12,40,17.10
2016,06,25,12,41,17.20
2016,06,25,12,42,17.30
2016,06,25,12,43,17.30
2016,06,25,12,44,17.50
2016,06,25,12,45,17.70
2016,06,25,12,46,17.80
2016,06,25,12,47,17.90
2016,06,25,12,48,17.90
2016,06,25,12,49,17.80
2016,06,25,12,50,17.70
2016,06,25,12,51,17.70
2016,06,25,12,52,17.70
2016,06,25,12,53,17.90
2016,06,25,12,54,17.90
2016,06,25,12,55,17.90
2016,06,25,12,56,17.80
2016,06,25,12,57,17.80
2016,06,25,12,58,17.80
2016,06,25,12,59,17.70
2016,06,25,13,00,17.70
2016,06,25,13,01,17.60
2016,06,25,13,02,17.60
2016,06,25,13,03,17.60
2016,06,25,13,04,17.70
2016,06,25,13,05,17.80
2016,06,25,13,06,17.80
2016,06,25,13,07,17.80
2016,06,25,13,08,17.90
2016,06,25,13,09,17.90
2016,06,25,13,10,17.90
2016,06,25,13,11,17.90
2016,06,25,13,12,18.10
2016,06,25,13,13,18.20
2016,06,25,13,14,18.10
2016,06,25,13,15,18.10
2016,06,25,13,16,18.00
2016,06,25,13,17,18.00
2016,06,25,13,18,18.00
2016,06,25,13,19,18.10
2016,06,25,13,20,18.20
2016,06,25,13,21,18.20
2016,06,25,13,22,18.20
2016,06,25,13,23,18.20
2016,06,25,13,24,18.20
2016,06,25,13,25,18.30
2016,06,25,13,26,18.30
2016,06,25,13,27,18.30
2016,06,25,13,28,18.40
2016,06,25,13,29,18.40
2016,06,25,13,30,18.30
2016,06,25,13,31,18.30
2016,06,25,13,32,18.30
2016,06,25,13,33,18.30
2016,06,25,13,34,18.30
2016,06,25,13,35,18.20
2016,06,25,13,36,18.30
2016,06,25,13,37,18.40
2016,06,25,13,38,18.60
2016,06,25,13,39,18.80
2016,06,25,13,40,18.90
2016,06,25,13,41,19.00
2016,06,25,13,42,19.00
2016,06,25,13,43,18.90
2016,06,25,13,44,18.70
2016,06,25,13,45,18.70
2016,06,25,13,46,18.60
2016,06,25,13,47,18.50
2016,06,25,13,48,18.30
2016,06,25,13,49,18.20
2016,06,25,13,50,18.20
2016,06,25,13,51,18.20
2016,06,25,13,52,18.20
2016,06,25,13,53,18.20
2016,06,25,13,54,18.20
2016,06,25,13,55,18.20
2016,06,25,13,56,18.20
2016,06,25,13,57,18.10
2016,06,25,13,58,18.20
2016,06,25,13,59,18.20
2016,06,25,14,00,18.20
2016,06,25,14,01,18.10
2016,06,25,14,02,18.00
2016,06,25,14,03,18.10
2016,06,25,14,04,18.20
2016,06,25,14,05,18.30
2016,06,25,14,06,18.30
2016,06,25,14,07,18.40
2016,06,25,14,08,18.40
2016,06,25,14,09,18.50
2016,06,25,14,10,18.50
2016,06,25,14,11,18.50
2016,06,25,14,12,18.70
2016,06,25,14,13,18.70
2016,06,25,14,14,18.70
2016,06,25,14,15,18.60
2016,06,25,14,16,18.50
2016,06,25,14,17,18.50
2016,06,25,14,18,18.70
2016,06,25,14,19,18.80
2016,06,25,14,20,18.90
2016,06,25,14,21,18.90
2016,06,25,14,22,18.80
2016,06,25,14,23,18.70
2016,06,25,14,24,18.70
2016,06,25,14,25,18.90
2016,06,25,14,26,19.00
2016,06,25,14,27,19.10
2016,06,25,14,28,19.20
2016,06,25,14,29,19.20
2016,06,25,14,30,19.30
2016,06,25,14,31,19.30
2016,06,25,14,32,19.40
2016,06,25,14,33,19.30
2016,06,25,14,34,19.30
2016,06,25,14,35,19.20
2016,06,25,14,36,19.10
2016,06,25,14,37,19.10
2016,06,25,14,38,19.00
2016,06,25,14,39,18.90
2016,06,25,14,40,18.90
2016,06,25,14,41,18.80
2016,06,25,14,42,18.70
2016,06,25,14,43,18.60
2016,06,25,14,44,18.60
2016,06,25,14,45,18.70
2016,06,25,14,46,18.90
2016,06,25,14,47,19.00
2016,06,25,14,48,19.10
2016,06,25,14,49,19.00
2016,06,25,14,50,19.00
2016,06,25,14,51,19.00
2016,06,25,14,52,19.10
2016,06,25,14,53,19.10
2016,06,25,14,54,19.20
2016,06,25,14,55,19.30
2016,06,25,14,56,19.30
2016,06,25,14,57,19.30
2016,06,25,14,58,19.30
2016,06,25,14,59,19.20
2016,06,25,15,00,19.10
2016,06,25,15,01,19.00
2016,06,25,15,02,18.90
2016,06,25,15,03,18.70
2016,06,25,15,04,18.60
2016,06,25,15,05,18.70
2016,06,25,15,06,18.70
2016,06,25,15,07,18.70
2016,06,25,15,08,18.60
2016,06,25,15,09,18.60
2016,06,25,15,10,18.60
2016,06,25,15,11,18.50
2016,06,25,15,12,18.40
2016,06,25,15,13,18.30
2016,06,25,15,14,18.40
2016,06,25,15,15,18.50
2016,06,25,15,16,18.60
2016,06,25,15,17,18.70
2016,06,25,15,18,18.80
2016,06,25,15,19,18.90
2016,06,25,15,20,19.00
2016,06,25,15,21,19.10
2016,06,25,15,22,19.20
2016,06,25,15,23,19.10
2016,06,25,15,24,19.10
2016,06,25,15,25,19.10
2016,06,25,15,26,19.20
2016,06,25,15,27,19.20
2016,06,25,15,28,19.10
2016,06,25,15,29,19.00
2016,06,25,15,30,18.90
2016,06,25,15,31,18.90
2016,06,25,15,32,19.00
2016,06,25,15,33,19.10
2016,06,25,15,34,19.20
2016,06,25,15,35,19.30
2016,06,25,15,36,19.40
2016,06,25,15,37,19.40
2016,06,25,15,38,19.30
2016,06,25,15,39,19.20
2016,06,25,15,40,19.20
2016,06,25,15,41,19.20
2016,06,25,15,42,19.30
2016,06,25,15,43,19.30
2016,06,25,15,44,19.30
2016,06,25,15,45,19.30
2016,06,25,15,46,19.30
2016,06,25,15,47,19.30
2016,06,25,15,48,19.30
2016,06,25,15,49,19.20
2016,06,25,15,50,19.20
2016,06,25,15,51,19.20
2016,06,25,15,52,19.30
2016,06,25,15,53,19.40
2016,06,25,15,54,19.40
2016,06,25,15,55,19.30
2016,06,25,15,56,19.30
2016,06,25,15,57,19.40
2016,06,25,15,58,19.40
2016,06,25,15,59,19.50
2016,06,25,16,00,19.50
2016,06,25,16,01,19.60
2016,06,25,16,02,19.50
2016,06,25,16,03,19.30
2016,06,25,16,04,19.30
2016,06,25,16,05,19.40
2016,06,25,16,06,19.50
2016,06,25,16,07,19.60
2016,06,25,16,08,19.60
2016,06,25,16,09,19.50
2016,06,25,16,10,19.40
2016,06,25,16,11,19.30
2016,06,25,16,12,19.30
2016,06,25,16,13,19.30
2016,06,25,16,14,19.30
2016,06,25,16,15,19.30
2016,06,25,16,16,19.30
2016,06,25,16,17,19.20
2016,06,25,16,18,19.20
2016,06,25,16,19,19.10
2016,06,25,16,20,19.20
2016,06,25,16,21,19.20
2016,06,25,16,22,19.20
2016,06,25,16,23,19.20
2016,06,25,16,24,19.20
2016,06,25,16,25,19.30
2016,06,25,16,26,19.30
2016,06,25,16,27,19.20
2016,06,25,16,28,19.20
2016,06,25,16,29,19.20
2016,06,25,16,30,19.20
2016,06,25,16,31,19.20
2016,06,25,16,32,19.30
2016,06,25,16,33,19.30
2016,06,25,16,34,19.30
2016,06,25,16,35,19.20
2016,06,25,16,36,19.10
2016,06,25,16,37,19.10
2016,06,25,16,38,19.10
2016,06,25,16,39,19.20
2016,06,25,16,40,19.10
2016,06,25,16,41,19.10
2016,06,25,16,42,19.10
2016,06,25,16,43,19.10
2016,06,25,16,44,19.10
2016,06,25,16,45,19.20
2016,06,25,16,46,19.30
2016,06,25,16,47,19.40
2016,06,25,16,48,19.30
2016,06,25,16,49,19.30
2016,06,25,16,50,19.30
2016,06,25,16,51,19.30
2016,06,25,16,52,19.30
2016,06,25,16,53,19.20
2016,06,25,16,54,19.20
2016,06,25,16,55,19.20
2016,06,25,16,56,19.20
2016,06,25,16,57,19.20
2016,06,25,16,58,19.20
2016,06,25,16,59,19.20
2016,06,25,17,00,19.20
2016,06,25,17,01,19.20
2016,06,25,17,02,19.30
2016,06,25,17,03,19.30
2016,06,25,17,04,19.40
2016,06,25,17,05,19.50
2016,06,25,17,06,19.60
2016,06,25,17,07,19.60
2016,06,25,17,08,19.60
2016,06,25,17,09,19.50
2016,06,25,17,10,19.50
2016,06,25,17,11,19.40
2016,06,25,17,12,19.30
2016,06,25,17,13,19.30
2016,06,25,17,14,19.20
2016,06,25,17,15,19.20
2016,06,25,17,16,19.30
2016,06,25,17,17,19.40
2016,06,25,17,18,19.40
2016,06,25,17,19,19.30
2016,06,25,17,20,19.40
2016,06,25,17,21,19.40
2016,06,25,17,22,19.50
2016,06,25,17,23,19.60
2016,06,25,17,24,19.60
2016,06,25,17,25,19.50
2016,06,25,17,26,19.40
2016,06,25,17,27,19.40
2016,06,25,17,28,19.50
2016,06,25,17,29,19.50
2016,06,25,17,30,19.60
2016,06,25,17,31,19.60
2016,06,25,17,32,19.60
2016,06,25,17,33,19.60
2016,06,25,17,34,19.60
2016,06,25,17,35,19.60
2016,06,25,17,36,19.70
2016,06,25,17,37,19.70
2016,06,25,17,38,19.70
2016,06,25,17,39,19.60
2016,06,25,17,40,19.60
2016,06,25,17,41,19.70
2016,06,25,17,42,19.60
2016,06,25,17,43,19.60
2016,06,25,17,44,19.70
2016,06,25,17,45,19.70
2016,06,25,17,46,19.60
2016,06,25,17,47,19.60
2016,06,25,17,48,19.70
2016,06,25,17,49,19.70
2016,06,25,17,50,19.70
2016,06,25,17,51,19.70
2016,06,25,17,52,19.70
2016,06,25,17,53,19.70
2016,06,25,17,54,19.70
2016,06,25,17,55,19.70
2016,06,25,17,56,19.70
2016,06,25,17,57,19.70
2016,06,25,17,58,19.70
2016,06,25,17,59,19.80
2016,06,25,18,00,19.80
2016,06,25,18,01,19.70
2016,06,25,18,02,19.80
2016,06,25,18,03,19.80
2016,06,25,18,04,19.70
2016,06,25,18,05,19.70
2016,06,25,18,06,19.70
2016,06,25,18,07,19.80
2016,06,25,18,08,19.80
2016,06,25,18,09,19.80
2016,06,25,18,10,19.70
2016,06,25,18,11,19.70
2016,06,25,18,12,19.80
2016,06,25,18,13,19.80
2016,06,25,18,14,19.80
2016,06,25,18,15,19.70
2016,06,25,18,16,19.70
2016,06,25,18,17,19.60
2016,06,25,18,18,19.60
2016,06,25,18,19,19.60
2016,06,25,18,20,19.70
2016,06,25,18,21,19.70
2016,06,25,18,22,19.70
2016,06,25,18,23,19.70
2016,06,25,18,24,19.70
2016,06,25,18,25,19.70
2016,06,25,18,26,19.70
2016,06,25,18,27,19.70
2016,06,25,18,28,19.70
2016,06,25,18,29,19.70
2016,06,25,18,30,19.70
2016,06,25,18,31,19.70
2016,06,25,18,32,19.60
2016,06,25,18,33,19.50
2016,06,25,18,34,19.50
2016,06,25,18,35,19.40
2016,06,25,18,36,19.40
2016,06,25,18,37,19.40
2016,06,25,18,38,19.50
2016,06,25,18,39,19.50
2016,06,25,18,40,19.60
2016,06,25,18,41,19.60
2016,06,25,18,42,19.60
2016,06,25,18,43,19.60
2016,06,25,18,44,19.60
2016,06,25,18,45,19.60
2016,06,25,18,46,19.70
2016,06,25,18,47,19.70
2016,06,25,18,48,19.70
2016,06,25,18,49,19.70
2016,06,25,18,50,19.70
2016,06,25,18,51,19.70
2016,06,25,18,52,19.60
2016,06,25,18,53,19.60
2016,06,25,18,54,19.60
2016,06,25,18,55,19.60
2016,06,25,18,56,19.50
2016,06,25,18,57,19.50
2016,06,25,18,58,19.50
2016,06,25,18,59,19.40
2016,06,25,19,00,19.40
2016,06,25,19,01,19.40
2016,06,25,19,02,19.30
2016,06,25,19,03,19.30
2016,06,25,19,04,19.30
2016,06,25,19,05,19.30
2016,06,25,19,06,19.30
2016,06,25,19,07,19.30
2016,06,25,19,08,19.30
2016,06,25,19,09,19.30
2016,06,25,19,10,19.30
2016,06,25,19,11,19.30
2016,06,25,19,12,19.30
2016,06,25,19,13,19.30
2016,06,25,19,14,19.30
2016,06,25,19,15,19.30
2016,06,25,19,16,19.20
2016,06,25,19,17,19.20
2016,06,25,19,18,19.20
2016,06,25,19,19,19.10
2016,06,25,19,20,19.10
2016,06,25,19,21,19.10
2016,06,25,19,22,19.10
2016,06,25,19,23,19.10
2016,06,25,19,24,19.10
2016,06,25,19,25,19.10
2016,06,25,19,26,19.10
2016,06,25,19,27,19.10
2016,06,25,19,28,19.10
2016,06,25,19,29,19.20
2016,06,25,19,30,19.20
2016,06,25,19,31,19.30
2016,06,25,19,32,19.30
2016,06,25,19,33,19.30
2016,06,25,19,34,19.30
2016,06,25,19,35,19.40
2016,06,25,19,36,19.40
2016,06,25,19,37,19.40
2016,06,25,19,38,19.40
2016,06,25,19,39,19.40
2016,06,25,19,40,19.40
2016,06,25,19,41,19.40
2016,06,25,19,42,19.40
2016,06,25,19,43,19.40
2016,06,25,19,44,19.40
2016,06,25,19,45,19.40
2016,06,25,19,46,19.40
2016,06,25,19,47,19.40
2016,06,25,19,48,19.50
2016,06,25,19,49,19.50
2016,06,25,19,50,19.50
2016,06,25,19,51,19.50
2016,06,25,19,52,19.50
2016,06,25,19,53,19.50
2016,06,25,19,54,19.60
2016,06,25,19,55,19.60
2016,06,25,19,56,19.60
2016,06,25,19,57,19.60
2016,06,25,19,58,19.60
2016,06,25,19,59,19.60
2016,06,25,20,00,19.60
2016,06,25,20,01,19.60
2016,06,25,20,02,19.60
2016,06,25,20,03,19.50
2016,06,25,20,04,19.50
2016,06,25,20,05,19.40
2016,06,25,20,06,19.40
2016,06,25,20,07,19.30
2016,06,25,20,08,19.30
2016,06,25,20,09,19.30
2016,06,25,20,10,19.30
2016,06,25,20,11,19.30
2016,06,25,20,12,19.30
2016,06,25,20,13,19.30
2016,06,25,20,14,19.20
2016,06,25,20,15,19.20
2016,06,25,20,16,19.20
2016,06,25,20,17,19.20
2016,06,25,20,18,19.20
2016,06,25,20,19,19.20
2016,06,25,20,20,19.20
2016,06,25,20,21,19.20
2016,06,25,20,22,19.20
2016,06,25,20,23,19.20
2016,06,25,20,24,19.20
2016,06,25,20,25,19.20
2016,06,25,20,26,19.20
2016,06,25,20,27,19.10
2016,06,25,20,28,19.10
2016,06,25,20,29,19.10
2016,06,25,20,30,19.10
2016,06,25,20,31,19.10
2016,06,25,20,32,19.10
2016,06,25,20,33,19.10
2016,06,25,20,34,19.10
2016,06,25,20,35,19.10
2016,06,25,20,36,19.10
2016,06,25,20,37,19.10
2016,06,25,20,38,19.10
2016,06,25,20,39,19.10
2016,06,25,20,40,19.10
2016,06,25,20,41,19.10
2016,06,25,20,42,19.10
2016,06,25,20,43,19.10
2016,06,25,20,44,19.10
2016,06,25,20,45,19.10
2016,06,25,20,46,19.10
2016,06,25,20,47,19.10
2016,06,25,20,48,19.00
2016,06,25,20,49,19.00
2016,06,25,20,50,19.00
2016,06,25,20,51,18.90
2016,06,25,20,52,18.90
2016,06,25,20,53,18.80
2016,06,25,20,54,18.70
2016,06,25,20,55,18.70
2016,06,25,20,56,18.70
2016,06,25,20,57,18.60
2016,06,25,20,58,18.60
2016,06,25,20,59,18.50
2016,06,25,21,00,18.40
2016,06,25,21,01,18.40
2016,06,25,21,02,18.40
2016,06,25,21,03,18.30
2016,06,25,21,04,18.30
2016,06,25,21,05,18.20
2016,06,25,21,06,18.20
2016,06,25,21,07,18.20
2016,06,25,21,08,18.10
2016,06,25,21,09,18.10
2016,06,25,21,10,18.00
2016,06,25,21,11,17.90
2016,06,25,21,12,17.90
2016,06,25,21,13,17.80
2016,06,25,21,14,17.80
2016,06,25,21,15,17.70
2016,06,25,21,16,17.70
2016,06,25,21,17,17.60
2016,06,25,21,18,17.50
2016,06,25,21,19,17.50
2016,06,25,21,20,17.40
2016,06,25,21,21,17.40
2016,06,25,21,22,17.30
2016,06,25,21,23,17.30
2016,06,25,21,24,17.30
2016,06,25,21,25,17.20
2016,06,25,21,26,17.20
2016,06,25,21,27,17.20
2016,06,25,21,28,17.20
2016,06,25,21,29,17.10
2016,06,25,21,30,17.10
2016,06,25,21,31,17.10
2016,06,25,21,32,17.00
2016,06,25,21,33,17.00
2016,06,25,21,34,16.90
2016,06,25,21,35,16.90
2016,06,25,21,36,16.80
2016,06,25,21,37,16.80
2016,06,25,21,38,16.70
2016,06,25,21,39,16.60
2016,06,25,21,40,16.60
2016,06,25,21,41,16.50
2016,06,25,21,42,16.50
2016,06,25,21,43,16.40
2016,06,25,21,44,16.40
2016,06,25,21,45,16.30
2016,06,25,21,46,16.30
2016,06,25,21,47,16.30
2016,06,25,21,48,16.30
2016,06,25,21,49,16.20
2016,06,25,21,50,16.20
2016,06,25,21,51,16.20
2016,06,25,21,52,16.10
2016,06,25,21,53,16.10
2016,06,25,21,54,16.00
2016,06,25,21,55,16.00
2016,06,25,21,56,15.90
2016,06,25,21,57,15.90
2016,06,25,21,58,15.90
2016,06,25,21,59,15.80
2016,06,25,22,00,15.80
2016,06,25,22,01,15.80
2016,06,25,22,02,15.70
2016,06,25,22,03,15.70
2016,06,25,22,04,15.70
2016,06,25,22,05,15.60
2016,06,25,22,06,15.60
2016,06,25,22,07,15.60
2016,06,25,22,08,15.60
2016,06,25,22,09,15.60
2016,06,25,22,10,15.50
2016,06,25,22,11,15.50
2016,06,25,22,12,15.50
2016,06,25,22,13,15.50
2016,06,25,22,14,15.50
2016,06,25,22,15,15.40
2016,06,25,22,16,15.40
2016,06,25,22,17,15.40
2016,06,25,22,18,15.40
2016,06,25,22,19,15.40
2016,06,25,22,20,15.40
2016,06,25,22,21,15.40
2016,06,25,22,22,15.40
2016,06,25,22,23,15.40
2016,06,25,22,24,15.40
2016,06,25,22,25,15.40
2016,06,25,22,26,15.40
2016,06,25,22,27,15.40
2016,06,25,22,28,15.40
2016,06,25,22,29,15.40
2016,06,25,22,30,15.40
2016,06,25,22,31,15.40
2016,06,25,22,32,15.40
2016,06,25,22,33,15.40
2016,06,25,22,34,15.40
2016,06,25,22,35,15.30
2016,06,25,22,36,15.30
2016,06,25,22,37,15.30
2016,06,25,22,38,15.30
2016,06,25,22,39,15.20
2016,06,25,22,40,15.20
2016,06,25,22,41,15.10
2016,06,25,22,42,15.00
2016,06,25,22,43,15.00
2016,06,25,22,44,15.00
2016,06,25,22,45,15.00
2016,06,25,22,46,15.00
2016,06,25,22,47,15.00
2016,06,25,22,48,15.00
2016,06,25,22,49,15.00
2016,06,25,22,50,15.00
2016,06,25,22,51,15.00
2016,06,25,22,52,15.00
2016,06,25,22,53,15.00
2016,06,25,22,54,15.00
2016,06,25,22,55,15.00
2016,06,25,22,56,15.00
2016,06,25,22,57,15.00
2016,06,25,22,58,15.00
2016,06,25,22,59,15.00
2016,06,25,23,00,15.00
2016,06,25,23,01,15.00
2016,06,25,23,02,15.00
2016,06,25,23,03,14.90
2016,06,25,23,04,14.90
2016,06,25,23,05,14.90
2016,06,25,23,06,14.90
2016,06,25,23,07,14.90
2016,06,25,23,08,14.90
2016,06,25,23,09,14.90
2016,06,25,23,10,14.90
2016,06,25,23,11,15.00
2016,06,25,23,12,15.00
2016,06,25,23,13,15.00
2016,06,25,23,14,15.00
2016,06,25,23,15,15.00
2016,06,25,23,16,15.00
2016,06,25,23,17,15.00
2016,06,25,23,18,15.00
2016,06,25,23,19,15.00
2016,06,25,23,20,15.00
2016,06,25,23,21,15.00
2016,06,25,23,22,15.00
2016,06,25,23,23,15.00
2016,06,25,23,24,15.00
2016,06,25,23,25,15.00
2016,06,25,23,26,15.00
2016,06,25,23,27,15.00
2016,06,25,23,28,15.10
2016,06,25,23,29,15.20
2016,06,25,23,30,15.20
2016,06,25,23,31,15.20
2016,06,25,23,32,15.20
2016,06,25,23,33,15.20
2016,06,25,23,34,15.20
2016,06,25,23,35,15.20
2016,06,25,23,36,15.20
2016,06,25,23,37,15.20
2016,06,25,23,38,15.20
2016,06,25,23,39,15.20
2016,06,25,23,40,15.20
2016,06,25,23,41,15.20
2016,06,25,23,42,15.20
2016,06,25,23,43,15.20
2016,06,25,23,44,15.20
2016,06,25,23,45,15.10
2016,06,25,23,46,15.10
2016,06,25,23,47,15.00
2016,06,25,23,48,15.00
2016,06,25,23,49,15.00
2016,06,25,23,50,15.00
2016,06,25,23,51,15.00
2016,06,25,23,52,15.00
2016,06,25,23,53,15.00
2016,06,25,23,54,15.00
2016,06,25,23,55,15.00
2016,06,25,23,56,15.00
2016,06,25,23,57,15.00
2016,06,25,23,58,15.10
2016,06,25,23,59,15.20
